Weather History for Springfield, VT

Change the Weather History Date:

Tuesday, August 19, 2014

  Actual Average Record
Temperature  
Mean Temperature 60 °F 67 °F  
Max Temperature 76 °F 79 °F 88 °F (2002)
Min Temperature 44 °F 55 °F 44 °F (2014)
Degree Days  
Heating Degree Days 5 1  
Month to date heating degree days 30 19  
Since 1 June heating degree days 95 132  
Since 1 July heating degree days 37 36  
Cooling Degree Days 0 3  
Month to date cooling degree days 36 73  
Year to date cooling degree days 213 288  
Since 1 June cooling degree days 208 276  
Growing Degree Days 10 (Base 50)    
Moisture  
Dew Point 49 °F    
Average Humidity 72    
Maximum Humidity 100    
Minimum Humidity 43    
Precipitation  
Precipitation 0.00 in 0.12 in 0.44 in (2008)
Month to date precipitation 2.38 2.37  
Year to date precipitation 26.47 26.96  
Sea Level Pressure  
Sea Level Pressure 29.94 in    
Wind  
Wind Speed 1 mph (ENE)    
Max Wind Speed 8 mph    
Max Gust Speed 11 mph    
Visibility 6 miles    
Events Fog    
T = Trace of Precipitation, MM = Missing Value Source: NWS Daily Summary

Daily Weather History Graph

Daily Weather History Graph

Search for Another Location

Airport:

Trip Planner

Search our weather history database for the weather conditions in past years. The results will help you decide how hot, cold, wet, or windy it might be!

Date:

Astronomy

Aug. 19, 2014 Rise Set
Actual Time 5:59 AM EDT 7:46 PM EDT
Civil Twilight 5:29 AM EDT 8:17 PM EDT
Nautical Twilight 4:52 AM EDT 8:54 PM EDT
Astronomical Twilight 4:11 AM EDT 9:34 PM EDT
Moon 12:46 AM EDT (8/19) 3:44 PM EDT (8/19)
Length of Visible Light 14h 48m
Length of Day
13h 47m
Waning Crescent, 29% of the Moon is Illuminated
Aug 19
Waning Crescent
Aug 25
New
Sep 2
First Quarter
Sep 8
Full
Sep 15
Last Quarter

Hourly Weather History & Observations

Time (EDT) Temp. Dew Point Humidity Pressure Visibility Wind Dir Wind Speed Gust Speed Precip Events Conditions
12:54 AM 48.9 °F 46.9 °F 93% 29.93 in 10.0 mi Calm Calm - N/A   Clear
1:54 AM 48.0 °F 46.9 °F 96% 29.93 in 10.0 mi Calm Calm - N/A   Clear
2:24 AM 46.9 °F 46.0 °F 97% 29.92 in 10.0 mi Calm Calm - N/A   Scattered Clouds
2:33 AM 46.9 °F 45.0 °F 93% 29.92 in 10.0 mi Calm Calm - N/A   Mostly Cloudy
2:54 AM 46.9 °F 45.0 °F 93% 29.92 in 10.0 mi Calm Calm - N/A   Overcast
3:07 AM 46.9 °F 45.0 °F 93% 29.91 in 1.2 mi Calm Calm - N/A   Overcast
3:11 AM 46.9 °F 46.0 °F 97% 29.92 in 0.2 mi NE 3.5 mph - N/A Fog Fog
3:28 AM 46.9 °F 46.0 °F 97% 29.91 in 1.0 mi Calm Calm - N/A   Mist
3:43 AM 46.0 °F 45.0 °F 96% 29.92 in 0.5 mi Calm Calm - N/A Fog Fog
3:54 AM 46.0 °F 46.0 °F 100% 29.93 in 0.5 mi Calm Calm - N/A Fog Fog
4:20 AM 46.0 °F 46.0 °F 100% 29.93 in 0.2 mi Calm Calm - N/A Fog Fog
4:54 AM 45.0 °F 45.0 °F 100% 29.94 in 0.8 mi Calm Calm - N/A   Mist
5:03 AM 45.0 °F 44.1 °F 97% 29.93 in 1.0 mi Calm Calm - N/A   Overcast
5:10 AM 45.0 °F 45.0 °F 100% 29.94 in 0.8 mi Calm Calm - N/A   Overcast
5:23 AM 45.0 °F 45.0 °F 100% 29.94 in 0.2 mi Calm Calm - N/A Fog Fog
5:54 AM 45.0 °F 45.0 °F 100% 29.95 in 0.2 mi Calm Calm - N/A Fog Fog
6:54 AM 44.1 °F 44.1 °F 100% 29.97 in 0.2 mi Calm Calm - N/A Fog Fog
7:27 AM 45.0 °F 45.0 °F 100% 29.96 in 0.5 mi Calm Calm - N/A Fog Fog
7:43 AM 46.0 °F 46.0 °F 100% 29.96 in 0.2 mi Calm Calm - N/A Fog Fog
7:50 AM 46.4 °F 46.4 °F 100% 29.97 in 1.0 mi Calm Calm - N/A   Overcast
7:51 AM 46.9 °F 46.0 °F 97% 29.97 in 1.2 mi Calm Calm - N/A   Overcast
7:55 AM 46.9 °F 46.9 °F 100% 29.97 in 3.0 mi Calm Calm - N/A   Overcast
8:16 AM 48.9 °F 48.0 °F 97% 29.96 in 10.0 mi Calm Calm - N/A   Scattered Clouds
8:54 AM 53.1 °F 50.0 °F 89% 29.96 in 10.0 mi Calm Calm - N/A   Clear
9:54 AM 60.1 °F 51.1 °F 72% 29.97 in 10.0 mi Calm Calm - N/A   Clear
10:54 AM 66.0 °F 52.0 °F 60% 29.96 in 10.0 mi Variable 4.6 mph - N/A   Clear
11:54 AM 70.0 °F 51.1 °F 51% 29.95 in 10.0 mi Calm Calm - N/A   Clear
12:54 PM 71.1 °F 52.0 °F 51% 29.94 in 10.0 mi Calm Calm - N/A   Clear
1:54 PM 73.9 °F 53.1 °F 48% 29.93 in 10.0 mi East 5.8 mph - N/A   Clear
2:54 PM 73.9 °F 51.1 °F 45% 29.91 in 10.0 mi Calm Calm - N/A   Clear
3:54 PM 75.9 °F 52.0 °F 43% 29.91 in 10.0 mi North 4.6 mph - N/A   Clear
4:54 PM 75.0 °F 54.0 °F 48% 29.91 in 10.0 mi Variable 3.5 mph - N/A   Clear
5:54 PM 73.9 °F 54.0 °F 50% 29.91 in 10.0 mi ESE 4.6 mph - N/A   Clear
6:54 PM 73.0 °F 54.0 °F 51% 29.93 in 10.0 mi Calm Calm - N/A   Clear
7:54 PM 64.0 °F 57.0 °F 78% 29.94 in 10.0 mi Calm Calm - N/A   Clear
8:54 PM 61.0 °F 57.0 °F 87% 29.96 in 10.0 mi Calm Calm - N/A   Clear
9:54 PM 57.9 °F 55.0 °F 90% 29.96 in 10.0 mi Calm Calm - N/A   Clear
10:54 PM 55.9 °F 54.0 °F 93% 29.98 in 10.0 mi Calm Calm - N/A   Clear
11:54 PM 55.0 °F 53.1 °F 93% 29.98 in 10.0 mi Calm Calm - N/A   Clear